This is the latest recevied weather packets stored in our database for station/object KH6HHG. If no packets are shown the sender has not sent any weather packets the latest 10 day(s).
| Time | Temp. | Humidity | Pressure | Rain* | Wind** | Luminosity | Snow |
|---|---|---|---|---|---|---|---|
| 1777233546 | 26.67° C | 62% | 1012.9 hPa | 0 mm | - | - | - |
| 1777233246 | 26.67° C | 62% | 1012.9 hPa | 0 mm | - | - | - |
| 1777232946 | 26.67° C | 63% | 1012.9 hPa | 0 mm | - | - | - |
| 1777232646 | 26.11° C | 62% | 1013 hPa | 0 mm | - | - | - |
| 1777232346 | 26.11° C | 65% | 1013 hPa | 0 mm | - | - | - |
| 1777232046 | 25.56° C | 66% | 1013.1 hPa | 0 mm | - | - | - |
| 1777231746 | 25.56° C | 66% | 1013.1 hPa | 0 mm | - | - | - |
| 1777231448 | 25° C | 67% | 1013.1 hPa | 0 mm | - | - | - |
| 1777231146 | 24.44° C | 68% | 1013.1 hPa | 0 mm | - | - | - |
| 1777230846 | 24.44° C | 69% | 1013.1 hPa | 0 mm | - | - | - |
| 1777230546 | 23.89° C | 69% | 1013.1 hPa | 0 mm | - | - | - |
| 1777230246 | 23.33° C | 70% | 1013.2 hPa | 0 mm | - | - | - |
| 1777229946 | 23.33° C | 71% | 1013.1 hPa | 0 mm | - | - | - |
| 1777229646 | 22.78° C | 72% | 1013.1 hPa | 0 mm | - | - | - |
| 1777229346 | 22.78° C | 73% | 1013 hPa | 0 mm | - | - | - |
| 1777229046 | 22.22° C | 75% | 1013 hPa | 0 mm | - | - | - |
| 1777228746 | 22.22° C | 74% | 1013 hPa | 0 mm | - | - | - |
| 1777228446 | 21.67° C | 76% | 1013 hPa | 0 mm | - | - | - |
| 1777228146 | 21.11° C | 79% | 1012.9 hPa | 0 mm | - | - | - |
| 1777227846 | 20.56° C | 81% | 1013.1 hPa | 0 mm | - | - | - |
| 1777227546 | 20° C | 82% | 1013.1 hPa | 0 mm | - | - | - |
| 1777227248 | 20° C | 83% | 1013.2 hPa | 0 mm | - | - | - |
| 1777226948 | 20° C | 84% | 1013.3 hPa | 0 mm | - | - | - |
| 1777226648 | 20.56° C | 83% | 1013.2 hPa | 0 mm | - | - | - |
| 1777226348 | 21.11° C | 81% | 1013.2 hPa | 0 mm | - | - | - |
* Rain latest hour (hover to see other rain measurements)
** Current wind speed in m/s (hover to see current wind gust speed)